Tracking 35274 objects as of 11-Sep-2026
HD Live streaming from Space Station
objects crossing your sky now

COSMOS 1588 DEB


COSMOS 1588 DEB is no longer on orbit


NORAD ID: 16652
Int'l Code: 1984-083V
Launch date: August 7, 1984
Source: Commonwealth of Independent States (former USSR) (CIS)
Launch site: TYURATAM MISSILE AND SPACE COMPLEX (TTMTR)
Decay date: 1986-05-13

Note: This is SATELLITE DEBRIS
Your satellite tracking list
Your tracking list is empty




NASA's NSSDC Master Catalog

Two Line Element Set (TLE):
1 16652U 84083V   86113.23616316  .00541212 +00000-0 +73522-2 0  9996
2 16652 065.0226 049.4574 0006830 241.1534 119.4187 15.57312119008085
Source of the keplerian elements: AFSPC